Weather in Sogom

Russia / Khanty-Mansi Autonomous Okrug — Yugra     60°30′25″N   68°04′33″E
temp.,
°C
wind,
m/s
gust,
m/s
humid.,
%
clouds,
%
prec.,
mm/h
press.,
hPa
HPBL,
m
25 may, wed
wed2523:00+12ese1179100 0.1 101511
02:00+11ese338192 0.0 101637
05:00+12se378778 0.0 1017156
08:00+16ese5776100 0.0 1016501
11:00+21ese7958100 0.0 1015951
14:00+25se7944100 0.0 10141396
17:00+26sse7104038 0.0 10131838
20:00+22se51058100 0.0 1013183
26 may, thu
thu2623:00+18se51169100 0.0 1013177
02:00+16se51173100 0.0 1013174
05:00+17se71468100 0.0 1012298
08:00+20se71459100 0.2 1012552
11:00+24sse81047100 0.2 1011866
14:00+28sse8123553 0.0 10102887
17:00+24sse484693 0.0 1009259
20:00+21wnw5765100 0.1 1010198
27 may, fri
fri2723:00+16nne359365 3.7 1009117
02:00+15e57905 0.6 1007120
05:00+16ese7158397 0.6 1006403
08:00+20se91769100 0.3 1005944
11:00+20se61166100 0.3 1005516
14:00+20s61172100 2.7 10041211
17:00+17se61289100 9.1 1005685
20:00+11nw7996100 3.7 1006294
28 may, sat
sat2823:00+9nw101397100 10.4 1006359
02:00+9nnw91497100 8.6 1007435
05:00+9nw91496100 13.9 1008514
08:00+9nw81395100 4.1 1009512
11:00+10nw81293100 4.6 1010450
14:00+11nw71090100 0.0 1012444
17:00+12wnw5990100 0.1 1013321
20:00+12wnw4990100 0.1 1014227
29 may, sun
sun2923:00+11nw4689100 0.1 1016128
02:00+11nw3485100 0.0 101666
05:00+12nw238196 0.0 101772
08:00+13wnw2373100 0.0 1018134
11:00+18w13497 0.0 1018522
14:00+22wsw3337100 0.0 10181556
17:00+22wsw4544100 0.0 10181732
20:00+19ssw336297 0.0 101824